This is the latest recevied weather packets stored in our database for station/object NR0A-4. If no packets are shown the sender has not sent any weather packets the latest 10 day(s).
| Time | Temp. | Humidity | Pressure | Rain* | Wind** | Luminosity | Snow |
|---|---|---|---|---|---|---|---|
| 1788450605 | 29.44° C | 60% | 1009 hPa | 0 mm | - | 575 W/m² | - |
| 1788450304 | 28.89° C | 60% | 1009 hPa | 0 mm | - | 568 W/m² | - |
| 1788450004 | 28.89° C | 60% | 1008.9 hPa | 0 mm | - | 555 W/m² | - |
| 1788449704 | 28.89° C | 62% | 1009.1 hPa | 0 mm | - | 536 W/m² | - |
| 1788449404 | 28.33° C | 63% | 1009 hPa | 0 mm | - | 531 W/m² | - |
| 1788449104 | 28.33° C | 62% | 1009 hPa | 0 mm | - | 517 W/m² | - |
| 1788448804 | 28.33° C | 61% | 1008.9 hPa | 0 mm | - | 504 W/m² | - |
| 1788448504 | 28.33° C | 62% | 1008.8 hPa | 0 mm | - | 497 W/m² | - |
| 1788448204 | 27.78° C | 63% | 1008.9 hPa | 0 mm | - | 483 W/m² | - |
| 1788447904 | 27.78° C | 62% | 1008.8 hPa | 0 mm | - | 471 W/m² | - |
| 1788447605 | 27.78° C | 62% | 1008.8 hPa | 0 mm | - | 455 W/m² | - |
| 1788447304 | 27.78° C | 63% | 1008.9 hPa | 0 mm | - | 441 W/m² | - |
| 1788447005 | 27.78° C | 63% | 1009 hPa | 0 mm | - | 431 W/m² | - |
| 1788446704 | 27.22° C | 64% | 1009 hPa | 0 mm | - | 417 W/m² | - |
| 1788446404 | 27.22° C | 64% | 1009.2 hPa | 0 mm | - | 403 W/m² | - |
| 1788446105 | 26.67° C | 64% | 1009.2 hPa | 0 mm | - | 385 W/m² | - |
| 1788445804 | 26.67° C | 65% | 1009.2 hPa | 0 mm | - | 373 W/m² | - |
| 1788445504 | 26.67° C | 65% | 1009.2 hPa | 0 mm | - | 359 W/m² | - |
| 1788445204 | 26.11° C | 65% | 1009.1 hPa | 0 mm | - | 341 W/m² | - |
| 1788444904 | 26.11° C | 65% | 1009.3 hPa | 0 mm | - | 329 W/m² | - |
| 1788444604 | 26.11° C | 67% | 1009.3 hPa | 0 mm | - | 315 W/m² | - |
| 1788444305 | 25.56° C | 67% | 1009.3 hPa | 0 mm | - | 297 W/m² | - |
| 1788444004 | 25.56° C | 67% | 1009.2 hPa | 0 mm | - | 199 W/m² | - |
| 1788443704 | 25° C | 67% | 1009.1 hPa | 0 mm | - | 130 W/m² | - |
| 1788443405 | 25° C | 67% | 1009.1 hPa | 0 mm | - | 120 W/m² | - |
* Rain latest hour (hover to see other rain measurements)
** Current wind speed in m/s (hover to see current wind gust speed)